Lid_Strength_Index
17 17 17 17 18 17 18 16 17 15 14 10 9 9 7 6 6 5 5 5 5 5 5 4 4 4 4 4 4 4 4 5 5 5 4 4 5 5 5 6 6 6 5 5
19 17 17 18 17 17 15 14 14 13 14 8 7 7 7 8 6 6 6 6 5 5 4 4 4 4 4 4 4 4 5 5 5 4 4 5 5 5 6 6 6 6 6 5
23 18 19 21 18 17 16 13 12 15 12 9 9 9 8 8 6 6 6 6 5 5 4 4 4 4 5 5 5 5 5 5 5 4 5 6 6 7 7 7 7 7 6 6
22 21 26 18 15 13 14 11 10 10 9 8 8 7 7 6 5 6 6 5 5 4 4 4 4 5 5 5 5 5 5 5 5 6 6 7 7 8 8 9 8 7 7 7
25 24 20 17 14 14 14 13 9 9 8 8 7 7 8 6 6 6 5 4 4 4 4 5 5 6 5 5 5 4 5 5 5 6 7 7 8 8 9 9 8 8 7 5
22 27 24 17 13 9 9 15 8 7 8 8 7 12 10 6 5 5 4 4 4 4 5 6 6 5 5 5 4 5 5 5 5 6 7 7 8 8 9 8 8 7 6 6
21 23 18 13 10 8 16 14 7 6 7 7 9 7 6 5 5 4 4 4 4 5 6 6 5 5 5 5 6 5 5 6 6 6 7 7 7 8 8 8 8 7 7 7
21 23 22 10 10 12 9 6 6 6 6 7 6 6 6 5 5 5 5 5 6 7 6 5 5 4 5 5 5 5 6 6 7 7 7 6 8 8 8 6 7 7 7 7
19 18 11 9 8 6 5 6 6 6 6 5 6 6 5 5 5 6 5 6 6 6 6 5 4 4 6 6 5 6 6 7 7 7 6 7 8 8 8 6 7 8 8 9
17 13 10 8 7 5 5 6 5 5 5 6 6 6 6 6 6 6 7 6 6 6 6 6 5 5 6 6 6 6 7 7 7 7 7 7 7 7 6 7 8 9 9 10
14 11 10 7 6 6 5 5 5 5 5 5 5 6 6 6 6 7 7 6 6 6 6 6 6 6 6 6 6 7 7 7 7 7 7 8 6 5 6 7 7 9 9 9
15 9 9 8 6 5 6 6 5 6 6 5 5 6 6 6 6 7 6 6 6 6 6 7 6 6 6 4 5 6 6 6 7 7 7 6 7 7 6 6 7 7 7 8
11 8 6 6 5 5 6 5 5 5 5 6 5 6 5 6 6 6 6 6 6 6 6 6 7 6 5 5 5 6 7 6 7 7 6 7 8 9 9 8 7 7 7 6
8 7 7 6 7 5 5 5 5 5 5 5 6 5 5 6 6 7 7 7 6 6 6 7 7 6 4 5 6 6 6 6 6 5 6 8 8 9 9 10 11 10 7 6
7 6 6 5 5 5 5 6 7 6 6 6 5 6 6 7 8 7 7 7 6 7 7 7 7 6 4 4 5 6 5 5 6 6 7 8 9 9 10 10 11 9 9 7
6 5 5 6 6 6 7 7 7 7 6 6 6 6 6 7 7 7 7 7 7 8 9 9 8 6 3 4 4 5 5 6 6 7 9 9 9 10 11 11 10 10 11 10
8 7 6 6 7 7 7 6 6 6 6 6 6 6 7 7 8 8 8 7 8 9 9 9 9 7 5 5 6 6 7 7 7 8 9 9 10 11 11 10 11 11 11 10
5 5 4 5 6 7 6 7 6 6 6 6 5 6 7 8 9 9 8 8 9 10 10 10 9 7 6 6 7 7 8 8 8 9 9 10 10 10 11 11 11 11 11 9
4 5 4 4 6 6 7 6 6 5 5 5 6 6 8 8 9 9 9 10 10 11 11 10 9 7 7 7 8 8 9 9 9 9 9 9 10 11 11 11 12 12 11 11
4 4 4 5 5 6 6 6 5 5 5 5 5 6 8 9 9 9 10 10 10 10 10 11 10 8 7 8 8 8 9 9 10 10 10 11 11 12 11 11 12 12 12 12
5 4 4 5 5 5 6 6 6 6 5 5 6 7 8 9 9 10 10 11 10 9 10 11 10 8 7 8 8 9 9 10 10 10 11 11 12 11 12 12 12 12 12 11
6 5 4 5 6 6 6 6 6 6 6 5 6 6 8 9 10 10 10 10 9 9 10 11 10 8 7 8 8 9 9 10 10 10 11 11 11 11 12 12 12 12 12 11
6 6 5 6 7 7 6 6 6 6 6 6 6 6 8 9 10 11 12 10 10 9 11 11 10 8 8 8 9 9 10 10 10 10 11 10 11 11 12 12 12 12 11 11
6 6 6 6 6 7 7 6 6 6 5 5 6 6 7 9 10 9 10 9 8 9 10 11 11 9 9 8 9 9 10 10 10 10 10 10 11 11 11 12 12 11 11 11
6 7 6 6 7 7 7 6 6 6 6 6 6 6 7 8 10 10 10 10 9 10 11 10 10 11 11 10 9 9 10 10 10 10 10 10 11 11 11 11 11 11 11 11
6 7 6 6 7 7 6 6 7 7 7 7 6 6 7 8 9 10 10 10 10 10 11 11 12 12 12 11 9 9 10 10 10 9 10 10 10 11 11 11 11 11 11 11
6 5 6 6 6 6 6 6 7 7 7 7 7 6 7 8 9 10 10 10 10 10 10 11 12 12 13 12 11 9 9 10 10 9 9 10 10 10 11 11 11 11 11 11